Location: Clover
(42.5131°N, 114.6874°W)
Time: 12:15:41
(UTC+00:00)

ARIANE 6 FM1 Upper Stage - Pass Details

Date: 27 January 2026
Orbit: 522 x 609 km, 62.0° (Epoch: 11 February)

Event Time Altitude Azimuth Distance (km) Brightness Sun altitude
Rises 01:30:39 0° 226° (SW) 2,715 7.4 -8.7°
Reaches altitude 10° 01:32:55 10° 231° (SW) 1,811 6.5 -9.1°
Maximum altitude 01:36:55 57° 310° (NW) 633 3.1 -9.8°
Drops below altitude 10° 01:40:52 10° 31° (NNE) 1,782 4.8 -10.5°
Enters shadow 01:41:22 - 32° (NNE) 1,979 5.0 -10.6°
